STARLINK-33534, 63499

Orbit data source: Space-Track

STARLINK-33534, 63499 is a payload satellite owned by SpaceX/Seattle (US) in LEO that was launched on Mon, 07 Apr 2025 UTC via an FALCON 9 launch vehicle from the Air Force Western Test Range (AFWTR). Payload-class satellites include a variety of spacecraft equipped with specific instruments for various scientific and technological missions. These include communications satellites like Starlink; space stations such as the ISS; scientific satellites like the Hubble; Earth observation satellites from companies like Planet Labs, Umbra, and HawkEye 360; GPS; miniature CubeSats for education and research; and military/defense satellites.

Loading next visibility...
Identifier
63499, 2025-071G
Orbit
LEO
Country
Flag of USUS
Related business
Manufacturer
SpaceX/Seattle
Mission
Operational Commercial Communications
Bus & Motor
STARLINK V2MO, Unknown motor
Mass
575 kg wet, ~530 kg dry
Launch date (UTC)
2025-04-07 (7 months ago)
Launch vehicle
FALCON 9
Launch site
Air Force Western Test Range (AFWTR)
Object type
Payload
Rocket body
Debris
Shape & HBR
Box + 2 Pan, 17.7 m
Radar Cross Section
36.964 m², Large (>1 m²)

Expand to show TLE details & history
Last TLE update: 18 hours ago

TLE from 18 hours ago
0 STARLINK-33534
1 63499U 25071G   25312.36609427  .00031514  00000-0  10712-2 0  9993
2 63499  53.1591 343.5340 0001347  97.4921 262.6233 15.30212640 34179
Epoch: 2025-11-08T08:47Z
TLE epoch observation values (Epoch: 2025-11-08T08:47:10.544Z)
Latitude
-0.00003°
Longitude
163.9433°
Altitude
476.196 km
Speed
7.629 km/s
True Right ascension
22h 54m 08s
True Declination
0° 00' 00"
Sunlit
Object was in full shadow at epoch
Visualization orbit readout
Latitude
Unknown
Longitude
Unknown
Altitude
Unknown
Speed
Unknown
Apparent Right ascension
Unknown
Apparent Declination
Unknown
Sunlit
N/A
Visualization observer readout
Local Sidereal Time
22:42:04
Azimuth
Unknown
Elevation
Unknown
Doppler factor
Unknown
Orbital elements
Apogee altitude
476.357 km
Perigee altitude
474.511 km
Semi-major axis
6,853.571 km
Eccentricity
0.00013
Inclination
53.1591°
RAAN
343.534°
Arg. of periapsis
97.4921°
True anomaly
262.60799°
Mean anomaly
262.6233°
Eccentric anomaly
262.61565°
Mean motion
3.82532 °/min
Orbital period
94.11 mins
BSTAR
0.0010712
Loading maneuver chart data...
Computing Atmospheric mass density...
Loading historical data...
Loading historical data...
Loading historical data...
Loading historical data...
Loading historical data...
Loading historical data...
Loading historical data...

Documentation

Showing up to 5 results
|